TimeEDT,TemperatureF,Dew PointF,Humidity,Sea Level PressureIn,VisibilityMPH,Wind Direction,Wind SpeedMPH,Gust SpeedMPH,PrecipitationIn,Events,Conditions,WindDirDegrees,DateUTC
12:54 AM,73.9,69.1,85,29.90,10.0,ESE,6.9,-,N/A,,Mostly Cloudy,110,2012-09-05 04:54:00
1:54 AM,73.0,69.1,87,29.90,10.0,SE,5.8,-,N/A,,Overcast,140,2012-09-05 05:54:00
2:54 AM,73.0,69.1,87,29.90,10.0,Calm,Calm,-,N/A,,Overcast,0,2012-09-05 06:54:00
3:54 AM,73.0,69.1,87,29.89,10.0,Calm,Calm,-,N/A,,Mostly Cloudy,0,2012-09-05 07:54:00
4:54 AM,73.0,69.1,87,29.89,10.0,ESE,3.5,-,N/A,,Overcast,120,2012-09-05 08:54:00
5:54 AM,73.0,69.1,87,29.89,10.0,SE,3.5,-,N/A,,Overcast,140,2012-09-05 09:54:00
6:54 AM,73.0,69.1,87,29.91,10.0,Calm,Calm,-,N/A,,Overcast,0,2012-09-05 10:54:00
7:37 AM,73.4,69.8,88,29.95,1.8,SSW,5.8,-,0.01,Rain,Rain,210,2012-09-05 11:37:00
7:54 AM,72.0,70.0,93,29.92,5.0,Calm,Calm,-,0.11,Rain,Rain,0,2012-09-05 11:54:00
8:35 AM,71.6,69.8,94,29.96,5.0,South,3.5,-,0.03,,Overcast,190,2012-09-05 12:35:00
8:54 AM,73.0,71.1,93,29.92,10.0,Calm,Calm,-,0.03,,Overcast,0,2012-09-05 12:54:00
9:06 AM,73.4,71.6,94,29.96,10.0,Calm,Calm,-,N/A,,Overcast,0,2012-09-05 13:06:00
9:31 AM,73.4,71.6,94,29.96,10.0,Calm,Calm,-,N/A,,Overcast,0,2012-09-05 13:31:00
9:39 AM,73.4,71.6,94,29.96,10.0,South,3.5,-,N/A,,Overcast,180,2012-09-05 13:39:00
9:54 AM,73.9,71.1,91,29.93,10.0,Calm,Calm,-,N/A,,Overcast,0,2012-09-05 13:54:00
10:54 AM,77.0,71.1,82,29.93,10.0,SSW,5.8,-,N/A,,Mostly Cloudy,200,2012-09-05 14:54:00
11:54 AM,75.9,71.1,85,29.92,10.0,West,4.6,-,0.00,,Mostly Cloudy,270,2012-09-05 15:54:00
12:54 PM,81.0,72.0,74,29.91,10.0,Calm,Calm,-,N/A,,Scattered Clouds,0,2012-09-05 16:54:00
1:54 PM,82.0,73.0,74,29.88,10.0,North,5.8,-,N/A,,Mostly Cloudy,360,2012-09-05 17:54:00
2:54 PM,82.0,72.0,71,29.87,10.0,SE,11.5,-,N/A,,Mostly Cloudy,140,2012-09-05 18:54:00
3:54 PM,82.0,71.1,69,29.84,10.0,South,10.4,17.3,N/A,,Scattered Clouds,180,2012-09-05 19:54:00
4:54 PM,82.9,71.1,67,29.83,10.0,South,11.5,-,N/A,,Scattered Clouds,170,2012-09-05 20:54:00
5:54 PM,78.1,73.0,84,29.85,4.0,Calm,Calm,-,0.18,Rain,Rain,0,2012-09-05 21:54:00
6:54 PM,75.0,71.1,87,29.87,10.0,NE,12.7,23.0,0.41,,Mostly Cloudy,40,2012-09-05 22:54:00
7:19 PM,71.6,69.8,94,29.90,10.0,NE,11.5,-,0.00,Thunderstorm,Thunderstorm,40,2012-09-05 23:19:00
7:54 PM,71.6,68.0,88,29.92,9.0,NNW,4.6,-,N/A,Rain,Light Rain,340,2012-09-05 23:54:00
8:54 PM,72.0,69.1,91,29.89,10.0,North,4.6,-,0.02,Rain,Light Rain,10,2012-09-06 00:54:00
9:54 PM,71.1,69.1,93,29.89,10.0,Calm,Calm,-,0.07,,Mostly Cloudy,0,2012-09-06 01:54:00
10:54 PM,71.1,69.1,93,29.89,10.0,Calm,Calm,-,N/A,,Mostly Cloudy,0,2012-09-06 02:54:00
11:54 PM,71.1,69.1,93,29.88,9.0,NE,3.5,-,N/A,,Clear,50,2012-09-06 03:54:00